GW0360 Weather Reports


time (UTC)temp
C
wind
direction
speed
KPH
gust
KPH
rain 1hr
cm
rain 24hr
cm
rain mn
cm
humidity
%
barometer
mb
20260906182545 35 205 0.0 4.8 0.00 0.00 0.00 51 1015.0
20260906182044 35 81 0.0 4.8 0.00 0.00 0.00 52 1015.1
20260906181603 34 135 0.0 4.8 0.00 0.00 0.00 54 1015.2
20260906181040 34 54 0.0 4.8 0.00 0.00 0.00 51 1015.3
20260906180543 35 0 1.6 6.4 0.00 0.00 0.00 50 1015.5
20260906180122 35 205 0.0 6.4 0.00 0.00 0.00 49 1015.6
20260906175543 35 248 1.6 4.8 0.00 0.00 0.00 53 1015.7
20260906175047 33 0 0.0 3.2 0.00 0.00 0.00 56 1015.8
20260906174619 33 0 0.0 3.2 0.00 0.00 0.00 56 1016.0
20260906174042 33 0 0.0 4.8 0.00 0.00 0.00 56 1016.0
20260906173542 33 0 0.0 4.8 0.00 0.00 0.00 57 1016.1
20260906173107 33 144 1.6 4.8 0.00 0.00 0.00 56 1016.1
20260906172540 33 0 0.0 4.8 0.00 0.00 0.00 57 1016.3
20260906172040 33 155 0.0 6.4 0.00 0.00 0.00 56 1016.3
20260906171614 33 0 1.6 6.4 0.00 0.00 0.00 58 1016.4
20260906171044 32 0 0.0 4.8 0.00 0.00 0.00 57 1016.5
20260906170540 32 0 0.0 4.8 0.00 0.00 0.00 58 1016.6
20260906170112 32 130 0.0 3.2 0.00 0.00 0.00 58 1016.8
20260906165541 32 0 0.0 6.4 0.00 0.00 0.00 57 1016.8
20260906165041 32 223 1.6 6.4 0.00 0.00 0.00 57 1016.8
20260906164559 32 0 1.6 4.8 0.00 0.00 0.00 57 1016.8
20260906164041 32 75 0.0 6.4 0.00 0.00 0.00 57 1016.8
20260906163546 32 0 1.6 6.4 0.00 0.00 0.00 58 1016.8
20260906163112 32 109 0.0 4.8 0.00 0.00 0.00 58 1016.8
20260906162542 31 98 1.6 6.4 0.00 0.00 0.00 58 1016.7
20260906162040 31 0 1.6 6.4 0.00 0.00 0.00 58 1016.7
20260906161622 31 108 1.6 6.4 0.00 0.00 0.00 57 1016.7
20260906161043 31 0 0.0 4.8 0.00 0.00 0.00 59 1016.7
20260906160544 31 168 1.6 6.4 0.00 0.00 0.00 59 1016.5
20260906160059 31 133 0.0 6.4 0.00 0.00 0.00 59 1016.5
20260906155543 31 92 1.6 6.4 0.00 0.00 0.00 59 1016.5
20260906155041 31 85 0.0 3.2 0.00 0.00 0.00 62 1016.5
20260906154606 31 123 0.0 3.2 0.00 0.00 0.00 61 1016.4
20260906154043 31 0 0.0 3.2 0.00 0.00 0.00 62 1016.4
20260906153546 31 0 0.0 4.8 0.00 0.00 0.00 63 1016.2
20260906153114 31 221 1.6 4.8 0.00 0.00 0.00 60 1016.3
20260906152543 31 0 0.0 4.8 0.00 0.00 0.00 62 1016.3
20260906152047 31 0 0.0 4.8 0.00 0.00 0.00 63 1016.2
20260906151603 31 0 0.0 3.2 0.00 0.00 0.00 61 1016.1
20260906151043 31 126 0.0 8.0 0.00 0.00 0.00 59 1016.1
20260906150543 31 138 0.0 8.0 0.00 0.00 0.00 60 1016.1
20260906150110 31 229 3.2 8.0 0.00 0.00 0.00 60 1016.1
20260906145547 31 0 0.0 8.0 0.00 0.00 0.00 63 1016.0
20260906145044 30 119 1.6 8.0 0.00 0.00 0.00 64 1016.1
20260906144603 30 0 0.0 4.8 0.00 0.00 0.00 64 1016.0
20260906144042 30 0 0.0 0.0 0.00 0.00 0.00 65 1016.1
20260906143544 30 0 0.0 4.8 0.00 0.00 0.00 64 1016.1
20260906143101 30 0 0.0 4.8 0.00 0.00 0.00 66 1016.0
20260906142543 29 112 1.6 4.8 0.00 0.00 0.00 66 1016.1
20260906142043 29 129 0.0 4.8 0.00 0.00 0.00 68 1016.0
20260906141621 28 130 0.0 4.8 0.00 0.00 0.00 69 1016.0
20260906141043 28 0 0.0 4.8 0.00 0.00 0.00 71 1016.0
20260906140543 28 113 1.6 6.4 0.00 0.00 0.00 71 1016.0
20260906140100 28 0 0.0 6.4 0.00 0.00 0.00 72 1015.9
20260906135543 27 132 1.6 4.8 0.00 0.00 0.00 71 1016.0
20260906135043 27 119 0.0 4.8 0.00 0.00 0.00 73 1015.9
20260906134602 27 0 0.0 4.8 0.00 0.00 0.00 73 1015.9
20260906134043 27 124 0.0 4.8 0.00 0.00 0.00 74 1016.0
20260906133543 27 111 0.0 3.2 0.00 0.00 0.00 74 1015.9
20260906133111 27 133 0.0 3.2 0.00 0.00 0.00 75 1015.9
20260906132541 26 133 0.0 3.2 0.00 0.00 0.00 76 1015.8
20260906132043 26 0 0.0 3.2 0.00 0.00 0.00 77 1015.8
20260906131610 26 0 0.0 3.2 0.00 0.00 0.00 78 1015.8
20260906131043 26 0 0.0 3.2 0.00 0.00 0.00 79 1015.8
20260906130544 25 127 0.0 1.6 0.00 0.00 0.00 81 1015.8
20260906125545 25 0 0.0 3.2 0.00 0.00 0.00 84 1015.9
20260906125043 24 0 0.0 1.6 0.00 0.00 0.00 86 1015.8
20260906124606 23 0 0.0 1.6 0.00 0.00 0.00 86 1015.7
20260906124044 23 0 0.0 0.0 0.00 0.00 0.00 86 1015.6
20260906123540 23 0 0.0 0.0 0.00 0.00 0.00 86 1015.6
20260906123108 23 0 0.0 0.0 0.00 0.00 0.00 86 1015.4
20260906122544 23 0 0.0 0.0 0.00 0.00 0.00 86 1015.5
20260906122044 23 0 0.0 0.0 0.00 0.00 0.00 87 1015.4
20260906121627 23 0 0.0 0.0 0.00 0.00 0.00 87 1015.5
20260906121043 23 0 0.0 0.0 0.00 0.00 0.00 87 1015.3
20260906120544 23 0 0.0 0.0 0.00 0.00 0.00 87 1015.2
20260906120106 23 0 0.0 0.0 0.00 0.00 0.00 87 1015.1
20260906115543 23 0 0.0 0.0 0.00 0.00 0.00 87 1015.0
20260906115040 23 0 0.0 0.0 0.00 0.00 0.00 87 1015.0
20260906114557 23 0 0.0 0.0 0.00 0.00 0.00 86 1015.0
20260906114041 23 0 0.0 0.0 0.00 0.00 0.00 86 1015.0
20260906113541 23 0 0.0 0.0 0.00 0.00 0.00 86 1015.0
20260906113104 23 0 0.0 0.0 0.00 0.00 0.00 86 1015.0
20260906112540 23 0 0.0 0.0 0.00 0.00 0.00 85 1015.0
20260906112040 23 0 0.0 0.0 0.00 0.00 0.00 85 1014.9
20260906111601 23 0 0.0 0.0 0.00 0.00 0.00 85 1014.9
20260906111040 23 0 0.0 0.0 0.00 0.00 0.00 85 1014.9
20260906110543 23 0 0.0 0.0 0.00 0.00 0.00 85 1014.8
20260906110056 23 0 0.0 0.0 0.00 0.00 0.00 85 1014.8
20260906105541 23 0 0.0 0.0 0.00 0.00 0.00 84 1014.8
20260906105119 23 0 0.0 0.0 0.00 0.00 0.00 84 1014.7
20260906104555 23 0 0.0 0.0 0.00 0.00 0.00 84 1014.7
20260906104041 23 0 0.0 0.0 0.00 0.00 0.00 84 1014.8
20260906103544 23 0 0.0 0.0 0.00 0.00 0.00 84 1014.8
20260906103104 23 0 0.0 0.0 0.00 0.00 0.00 83 1014.8
20260906102544 23 0 0.0 0.0 0.00 0.00 0.00 83 1014.8
20260906102040 23 0 0.0 0.0 0.00 0.00 0.00 82 1014.9
20260906101603 24 0 0.0 0.0 0.00 0.00 0.00 81 1014.9
20260906101040 24 0 0.0 0.0 0.00 0.00 0.00 81 1014.7
20260906100550 24 0 0.0 0.0 0.00 0.00 0.00 81 1014.8
20260906100058 24 0 0.0 0.0 0.00 0.00 0.00 81 1014.9
20260906095541 24 0 0.0 0.0 0.00 0.00 0.00 82 1014.8
20260906095140 24 0 0.0 0.0 0.00 0.00 0.00 82 1014.8
20260906094606 24 0 0.0 0.0 0.00 0.00 0.00 81 1014.7
20260906094040 24 0 0.0 0.0 0.00 0.00 0.00 81 1014.8
20260906093541 24 0 0.0 0.0 0.00 0.00 0.00 80 1014.8
20260906093101 25 0 0.0 0.0 0.00 0.00 0.00 80 1014.7
20260906092540 25 0 0.0 0.0 0.00 0.00 0.00 79 1014.6
20260906092041 25 0 0.0 0.0 0.00 0.00 0.00 78 1014.5
20260906091603 25 0 0.0 0.0 0.00 0.00 0.00 78 1014.6
20260906091047 25 0 0.0 0.0 0.00 0.00 0.00 78 1014.6
20260906090543 25 0 0.0 0.0 0.00 0.00 0.00 78 1014.6
20260906090059 25 0 0.0 0.0 0.00 0.00 0.00 77 1014.5
20260906085540 25 0 0.0 0.0 0.00 0.00 0.00 77 1014.5
20260906085043 25 0 0.0 0.0 0.00 0.00 0.00 76 1014.2
20260906084602 25 0 0.0 0.0 0.00 0.00 0.00 76 1014.3
20260906084040 26 0 0.0 0.0 0.00 0.00 0.00 75 1014.2
20260906083540 26 0 0.0 0.0 0.00 0.00 0.00 75 1014.1
20260906083104 26 0 0.0 0.0 0.00 0.00 0.00 74 1014.1
20260906082543 26 0 0.0 0.0 0.00 0.00 0.00 74 1014.2
20260906082040 26 0 0.0 3.2 0.00 0.00 0.00 73 1014.1
20260906081600 26 0 0.0 3.2 0.00 0.00 0.00 74 1014.2
20260906081115 26 173 0.0 1.6 0.00 0.00 0.00 74 1014.2
20260906080540 26 0 0.0 1.6 0.00 0.00 0.00 74 1014.1
20260906080101 26 0 0.0 1.6 0.00 0.00 0.00 74 1013.9
20260906075546 26 173 0.0 1.6 0.00 0.00 0.00 74 1013.9
20260906075045 26 0 0.0 1.6 0.00 0.00 0.00 73 1013.9
20260906074602 26 0 0.0 0.0 0.00 0.00 0.00 73 1014.0
20260906074048 26 0 0.0 0.0 0.00 0.00 0.00 73 1014.0
20260906073547 26 0 0.0 0.0 0.00 0.00 0.00 72 1014.0
20260906073100 26 0 0.0 0.0 0.00 0.00 0.00 72 1014.0
20260906072545 27 0 0.0 1.6 0.00 0.00 0.00 72 1014.0
20260906072048 27 0 0.0 3.2 0.00 0.00 0.00 71 1014.0
20260906071559 27 0 0.0 3.2 0.00 0.00 0.00 71 1014.0
20260906071044 27 0 0.0 1.6 0.00 0.00 0.00 71 1014.0
20260906070545 27 0 0.0 1.6 0.00 0.00 0.00 71 1014.0
20260906070101 27 0 0.0 1.6 0.00 0.00 0.00 70 1014.1
20260906065545 27 0 0.0 1.6 0.00 0.00 0.00 70 1014.2
20260906065044 27 0 0.0 3.2 0.00 0.00 0.00 69 1014.1
20260906064604 27 0 0.0 3.2 0.00 0.00 0.00 69 1014.2
20260906064045 28 0 0.0 3.2 0.00 0.00 0.00 68 1014.2
20260906063544 28 0 0.0 3.2 0.00 0.00 0.00 68 1014.3
20260906063100 28 0 0.0 3.2 0.00 0.00 0.00 68 1014.4
20260906062544 28 0 0.0 3.2 0.00 0.00 0.00 67 1014.4
20260906062044 28 0 0.0 4.8 0.00 0.00 0.00 67 1014.3
20260906061603 28 0 0.0 4.8 0.00 0.00 0.00 67 1014.4
20260906061045 28 0 0.0 4.8 0.00 0.00 0.00 67 1014.4
20260906060544 28 0 0.0 4.8 0.00 0.00 0.00 66 1014.4
20260906060135 28 0 0.0 3.2 0.00 0.00 0.00 66 1014.5
20260906055547 28 0 0.0 3.2 0.00 0.00 0.00 66 1014.4
20260906055045 28 0 0.0 3.2 0.00 0.00 0.00 66 1014.5
20260906054615 28 0 0.0 4.8 0.00 0.00 0.00 66 1014.5
20260906054045 28 108 0.0 4.8 0.00 0.00 0.00 66 1014.4
20260906053545 29 113 0.0 6.4 0.00 0.00 0.00 65 1014.5
20260906053101 29 127 1.6 6.4 0.00 0.00 0.00 64 1014.4
20260906052545 29 196 1.6 6.4 0.00 0.00 0.00 64 1014.5
20260906052045 29 116 1.6 4.8 0.00 0.00 0.00 65 1014.5
20260906051600 29 0 0.0 9.7 0.00 0.00 0.00 65 1014.5
20260906051044 29 0 1.6 9.7 0.00 0.00 0.00 65 1014.6
20260906050544 29 0 0.0 9.7 0.00 0.00 0.00 65 1014.6
20260906050101 29 0 0.0 3.2 0.00 0.00 0.00 65 1014.5
20260906045545 29 0 0.0 6.4 0.00 0.00 0.00 65 1014.6
20260906045045 29 103 0.0 6.4 0.00 0.00 0.00 64 1014.6
20260906044602 29 132 0.0 4.8 0.00 0.00 0.00 65 1014.4
20260906044045 29 0 0.0 3.2 0.00 0.00 0.00 65 1014.5
20260906043545 29 130 0.0 3.2 0.00 0.00 0.00 65 1014.5
20260906043059 29 0 0.0 3.2 0.00 0.00 0.00 64 1014.5
20260906042542 29 0 0.0 3.2 0.00 0.00 0.00 64 1014.6
20260906042042 29 119 0.0 4.8 0.00 0.00 0.00 65 1014.5
20260906041605 29 112 0.0 4.8 0.00 0.00 0.00 66 1014.5
20260906041042 28 112 0.0 4.8 0.00 0.00 0.00 67 1014.5
20260906040542 28 0 0.0 4.8 0.00 0.00 0.00 68 1014.4
20260906040109 28 0 0.0 4.8 0.00 0.00 0.00 68 1014.4
20260906035546 28 0 0.0 0.0 0.00 0.00 0.00 68 1014.2
20260906035045 28 0 0.0 0.0 0.00 0.00 0.00 68 1014.2
20260906034607 28 0 0.0 0.0 0.00 0.00 0.00 68 1014.1
20260906034045 28 0 0.0 0.0 0.00 0.00 0.00 67 1014.1
20260906033544 28 0 0.0 0.0 0.00 0.00 0.00 68 1014.0
20260906033100 28 0 0.0 0.0 0.00 0.00 0.00 67 1014.0
20260906032545 28 0 0.0 0.0 0.00 0.00 0.00 67 1013.9
20260906032042 28 0 0.0 0.0 0.00 0.00 0.00 67 1013.9
20260906031606 28 0 0.0 0.0 0.00 0.00 0.00 66 1013.9
20260906031045 28 0 0.0 0.0 0.00 0.00 0.00 66 1013.9
20260906030545 28 0 0.0 0.0 0.00 0.00 0.00 65 1013.9
20260906030105 28 0 0.0 0.0 0.00 0.00 0.00 65 1013.8
20260906025545 28 0 0.0 0.0 0.00 0.00 0.00 65 1013.8
20260906025047 28 0 0.0 0.0 0.00 0.00 0.00 66 1013.7
20260906024618 28 0 0.0 0.0 0.00 0.00 0.00 67 1013.7
20260906024045 28 0 0.0 0.0 0.00 0.00 0.00 68 1013.6
20260906023543 28 0 0.0 0.0 0.00 0.00 0.00 69 1013.5
20260906023101 28 0 0.0 0.0 0.00 0.00 0.00 69 1013.4
20260906022545 28 0 0.0 0.0 0.00 0.00 0.00 68 1013.4
20260906022045 28 0 0.0 0.0 0.00 0.00 0.00 67 1013.2
20260906021603 28 0 0.0 0.0 0.00 0.00 0.00 67 1013.1
20260906021045 28 0 0.0 0.0 0.00 0.00 0.00 67 1012.9
20260906020542 28 0 0.0 0.0 0.00 0.00 0.00 66 1013.0
20260906020109 29 0 0.0 0.0 0.00 0.00 0.00 66 1013.0
20260906015543 29 0 0.0 0.0 0.00 0.00 0.00 65 1012.8
20260906015045 29 0 0.0 0.0 0.00 0.00 0.00 64 1012.7
20260906014609 29 0 0.0 0.0 0.00 0.00 0.00 64 1012.6
20260906014046 30 0 0.0 0.0 0.00 0.00 0.00 63 1012.6
20260906013541 30 0 0.0 0.0 0.00 0.00 0.00 62 1012.5
20260906013104 30 0 0.0 0.0 0.00 0.00 0.00 61 1012.5
20260906012540 30 0 0.0 0.0 0.00 0.00 0.00 61 1012.4
20260906012043 30 0 0.0 0.0 0.00 0.00 0.00 60 1012.4
20260906011602 30 0 0.0 0.0 0.00 0.00 0.00 60 1012.4
20260906011040 30 0 0.0 0.0 0.00 0.00 0.00 59 1012.3
20260906010540 31 0 0.0 0.0 0.00 0.00 0.00 58 1012.2
20260906010143 31 0 0.0 0.0 0.00 0.00 0.00 58 1012.3
20260906005540 31 0 0.0 0.0 0.00 0.00 0.00 59 1012.3
20260906005042 31 0 0.0 0.0 0.00 0.00 0.00 57 1012.3
20260906004614 31 0 0.0 0.0 0.00 0.00 0.00 57 1012.2
20260906004043 31 0 0.0 0.0 0.00 0.00 0.00 57 1012.3
20260906003540 32 0 0.0 0.0 0.00 0.00 0.00 54 1012.4
20260906003104 32 0 0.0 0.0 0.00 0.00 0.00 53 1012.3
20260906002540 32 0 0.0 0.0 0.00 0.00 0.00 52 1012.3
20260906002041 33 0 0.0 1.6 0.00 0.00 0.00 50 1012.3
20260906001606 33 0 0.0 1.6 0.00 0.00 0.00 49 1012.2
20260906001040 33 0 0.0 3.2 0.00 0.00 0.00 49 1012.3
20260906000541 33 213 0.0 3.2 0.00 0.00 0.00 50 1012.2
20260906000104 33 0 0.0 4.8 0.00 0.00 0.00 49 1012.4
20260905235544 34 0 0.0 4.8 0.00 0.00 0.00 48 1012.4
20260905235040 34 186 0.0 4.8 0.00 0.00 0.00 46 1012.4
20260905234601 34 0 0.0 3.2 0.00 0.00 0.00 47 1012.4
20260905234041 34 0 0.0 3.2 0.00 0.00 0.00 47 1012.4
20260905233541 35 215 0.0 4.8 0.00 0.00 0.00 46 1012.5
20260905233103 35 0 0.0 6.4 0.00 0.00 0.00 44 1012.5
20260905232541 35 0 1.6 6.4 0.00 0.00 0.00 44 1012.3
20260905232044 35 230 0.0 6.4 0.00 0.00 0.00 44 1012.3
20260905231612 35 0 1.6 6.4 0.00 0.00 0.00 43 1012.3
20260905231040 35 221 1.6 4.8 0.00 0.00 0.00 43 1012.2
20260905230540 35 249 1.6 8.0 0.00 0.00 0.00 44 1012.2
20260905230104 35 0 0.0 8.0 0.00 0.00 0.00 43 1012.2
20260905225540 36 227 0.0 6.4 0.00 0.00 0.00 42 1012.2
20260905225040 36 171 3.2 6.4 0.00 0.00 0.00 42 1012.2
20260905224603 36 0 0.0 6.4 0.00 0.00 0.00 44 1012.2
20260905224041 36 0 0.0 14.5 0.00 0.00 0.00 42 1012.2
20260905223545 36 187 4.8 14.5 0.00 0.00 0.00 41 1012.2
20260905223100 36 226 0.0 8.0 0.00 0.00 0.00 40 1012.3
20260905222545 36 134 1.6 8.0 0.00 0.00 0.00 40 1012.4
20260905222044 37 202 3.2 8.0 0.00 0.00 0.00 40 1012.5
20260905221602 37 244 1.6 8.0 0.00 0.00 0.00 38 1012.4
20260905221044 37 120 0.0 12.9 0.00 0.00 0.00 40 1012.5
20260905220544 37 223 4.8 12.9 0.00 0.00 0.00 39 1012.6
20260905220106 37 0 1.6 9.7 0.00 0.00 0.00 39 1012.7
20260905215544 37 0 0.0 6.4 0.00 0.00 0.00 39 1012.6
20260905215043 37 136 1.6 9.7 0.00 0.00 0.00 39 1012.7
20260905214600 37 0 1.6 9.7 0.00 0.00 0.00 40 1012.7
20260905214046 37 270 1.6 11.3 0.00 0.00 0.00 39 1012.7
20260905213544 37 175 3.2 11.3 0.00 0.00 0.00 39 1012.8
20260905213100 37 221 4.8 11.3 0.00 0.00 0.00 37 1012.7
20260905212547 38 243 4.8 11.3 0.00 0.00 0.00 37 1012.8
20260905212044 37 225 3.2 16.1 0.00 0.00 0.00 37 1012.9
20260905211606 37 184 6.4 16.1 0.00 0.00 0.00 38 1012.9
20260905211044 37 219 8.0 16.1 0.00 0.00 0.00 37 1013.0
20260905210543 37 202 4.8 11.3 0.00 0.00 0.00 38 1013.1
20260905210116 37 0 0.0 6.4 0.00 0.00 0.00 40 1013.1
20260905205545 37 0 0.0 11.3 0.00 0.00 0.00 40 1013.1
20260905205044 37 207 1.6 11.3 0.00 0.00 0.00 41 1013.4
20260905204601 37 251 3.2 16.1 0.00 0.00 0.00 39 1013.4
20260905204044 37 178 4.8 16.1 0.00 0.00 0.00 38 1013.4
20260905203544 38 215 4.8 16.1 0.00 0.00 0.00 39 1013.4
20260905203101 37 253 3.2 9.7 0.00 0.00 0.00 40 1013.4
20260905202548 37 0 0.0 14.5 0.00 0.00 0.00 41 1013.5
20260905202045 37 96 3.2 14.5 0.00 0.00 0.00 42 1013.7
20260905201600 37 213 4.8 14.5 0.00 0.00 0.00 40 1013.6
20260905201048 37 241 1.6 14.5 0.00 0.00 0.00 40 1013.7
20260905200544 37 215 4.8 12.9 0.00 0.00 0.00 40 1013.8
20260905200127 37 207 1.6 11.3 0.00 0.00 0.00 39 1013.8
20260905195545 37 235 1.6 12.9 0.00 0.00 0.00 41 1013.9
20260905195045 37 134 4.8 14.5 0.00 0.00 0.00 40 1013.9
20260905194601 37 246 3.2 14.5 0.00 0.00 0.00 41 1014.0
20260905194048 37 239 4.8 14.5 0.00 0.00 0.00 39 1014.0
20260905193545 37 244 4.8 11.3 0.00 0.00 0.00 39 1014.0
20260905193102 37 255 1.6 11.3 0.00 0.00 0.00 41 1014.0
20260905192540 37 109 3.2 11.3 0.00 0.00 0.00 41 1014.0
20260905192041 37 163 3.2 9.7 0.00 0.00 0.00 40 1014.1
20260905191559 37 194 3.2 8.0 0.00 0.00 0.00 40 1014.1
20260905191040 37 163 3.2 14.5 0.00 0.00 0.00 41 1014.2
20260905190540 37 114 4.8 14.5 0.00 0.00 0.00 40 1014.3
20260905190057 37 269 1.6 16.1 0.00 0.00 0.00 40 1014.4
20260905185540 36 0 3.2 16.1 0.00 0.00 0.00 40 1014.3
20260905185040 36 239 3.2 12.9 0.00 0.00 0.00 41 1014.4
20260905184611 36 172 1.6 12.9 0.00 0.00 0.00 43 1014.4
20260905184044 36 123 3.2 12.9 0.00 0.00 0.00 44 1014.4
20260905183541 37 225 3.2 12.9 0.00 0.00 0.00 43 1014.6
20260905183103 36 227 1.6 8.0 0.00 0.00 0.00 43 1014.8